| time (UTC) | temp F | wind direction | speed knots | gust knots | rain 1hr in | rain 24hr in | rain mn in | humidity % | barometer mb |
| 20260504081901 | 46 | 211 | 0.9 | 2.6 | 0.00 | 0.00 | 0.00 | 63 | 1014.7 |
| 20260504081403 | 46 | 236 | 0.9 | 3.5 | 0.00 | 0.00 | 0.00 | 63 | 1014.7 |
| 20260504080908 | 46 | 227 | 0.9 | 3.5 | 0.00 | 0.00 | 0.00 | 63 | 1014.6 |
| 20260504080406 | 47 | 219 | 1.7 | 3.5 | 0.00 | 0.00 | 0.00 | 63 | 1014.6 |
| 20260504070340 | 47 | 202 | 0.9 | 2.6 | 0.00 | 0.00 | 0.00 | 61 | 1014.5 |
| 20260504050324 | 50 | 190 | 1.7 | 5.2 | 0.00 | 0.00 | 0.00 | 55 | 1014.4 |
| 20260504045817 | 50 | 205 | 1.7 | 4.3 | 0.00 | 0.00 | 0.00 | 55 | 1014.4 |
| 20260504045317 | 50 | 219 | 1.7 | 4.3 | 0.00 | 0.00 | 0.00 | 55 | 1014.4 |
| 20260504044822 | 50 | 202 | 0.9 | 3.5 | 0.00 | 0.00 | 0.00 | 55 | 1014.3 |
| 20260504044318 | 51 | 248 | 0.9 | 3.5 | 0.00 | 0.00 | 0.00 | 55 | 1014.4 |
| 20260504043825 | 51 | 234 | 0.9 | 4.3 | 0.00 | 0.00 | 0.00 | 55 | 1014.3 |
| 20260504043311 | 51 | 233 | 0.9 | 4.3 | 0.00 | 0.00 | 0.00 | 55 | 1014.4 |
| 20260504042816 | 51 | 190 | 1.7 | 4.3 | 0.00 | 0.00 | 0.00 | 55 | 1014.4 |
| 20260504042319 | 51 | 225 | 1.7 | 4.3 | 0.00 | 0.00 | 0.00 | 54 | 1014.3 |
| 20260504041811 | 51 | 250 | 0.9 | 3.5 | 0.00 | 0.00 | 0.00 | 54 | 1014.3 |
| 20260504041410 | 51 | 211 | 0.9 | 3.5 | 0.00 | 0.00 | 0.00 | 53 | 1014.2 |
| 20260504040810 | 51 | 217 | 1.7 | 3.5 | 0.00 | 0.00 | 0.00 | 53 | 1014.2 |
| 20260504040309 | 52 | 225 | 1.7 | 6.1 | 0.00 | 0.00 | 0.00 | 53 | 1014.2 |
| 20260504035808 | 52 | 209 | 1.7 | 6.1 | 0.00 | 0.00 | 0.00 | 52 | 1014.0 |
| 20260504035305 | 52 | 238 | 1.7 | 6.1 | 0.00 | 0.00 | 0.00 | 52 | 1014.0 |
| 20260504034807 | 52 | 194 | 1.7 | 6.1 | 0.00 | 0.00 | 0.00 | 52 | 1014.0 |
| 20260504034540 | 52 | 234 | 1.7 | 4.3 | 0.00 | 0.00 | 0.00 | 52 | 1013.9 |
| 20260504034305 | 52 | 234 | 1.7 | 4.3 | 0.00 | 0.00 | 0.00 | 52 | 1013.9 |
| 20260504033806 | 52 | 184 | 1.7 | 4.3 | 0.00 | 0.00 | 0.00 | 52 | 1013.8 |
| 20260504033302 | 52 | 215 | 1.7 | 4.3 | 0.00 | 0.00 | 0.00 | 52 | 1013.8 |
| 20260504032759 | 52 | 208 | 1.7 | 4.3 | 0.00 | 0.00 | 0.00 | 52 | 1013.8 |
| 20260504032250 | 52 | 202 | 1.7 | 3.5 | 0.00 | 0.00 | 0.00 | 52 | 1013.8 |
| 20260504031743 | 52 | 205 | 1.7 | 3.5 | 0.00 | 0.00 | 0.00 | 52 | 1013.5 |
| 20260504031700 | 53 | 206 | 1.7 | 4.3 | 0.00 | 0.00 | 0.00 | 51 | 1013.5 |
| 20260504030745 | 53 | 199 | 1.7 | 4.3 | 0.00 | 0.00 | 0.00 | 51 | 1013.5 |
| 20260504030633 | 53 | 207 | 1.7 | 4.3 | 0.00 | 0.00 | 0.00 | 51 | 1013.5 |
| 20260504025740 | 53 | 233 | 1.7 | 4.3 | 0.00 | 0.00 | 0.00 | 51 | 1013.5 |
| 20260504025239 | 53 | 265 | 1.7 | 4.3 | 0.00 | 0.00 | 0.00 | 50 | 1013.4 |
| 20260504024739 | 53 | 0 | 1.7 | 4.3 | 0.00 | 0.00 | 0.00 | 50 | 1013.5 |
| 20260504024239 | 53 | 232 | 1.7 | 5.2 | 0.00 | 0.00 | 0.00 | 50 | 1013.5 |
| 20260504023738 | 53 | 219 | 1.7 | 5.2 | 0.00 | 0.00 | 0.00 | 50 | 1013.6 |
| 20260504023236 | 53 | 215 | 1.7 | 4.3 | 0.00 | 0.00 | 0.00 | 51 | 1013.8 |
| 20260504022738 | 53 | 237 | 1.7 | 4.3 | 0.00 | 0.00 | 0.00 | 50 | 1013.6 |
| 20260504022233 | 53 | 212 | 1.7 | 4.3 | 0.00 | 0.00 | 0.00 | 50 | 1013.5 |
| 20260504021737 | 53 | 241 | 1.7 | 4.3 | 0.00 | 0.00 | 0.00 | 50 | 1013.5 |
| 20260504021234 | 54 | 0 | 1.7 | 4.3 | 0.00 | 0.00 | 0.00 | 49 | 1013.4 |
| 20260504021226 | 54 | 0 | 0.9 | 3.5 | 0.00 | 0.00 | 0.00 | 49 | 1013.4 |
| 20260504020233 | 54 | 205 | 0.9 | 3.5 | 0.00 | 0.00 | 0.00 | 48 | 1013.4 |
| 20260504015954 | 55 | 0 | 1.7 | 3.5 | 0.00 | 0.00 | 0.00 | 47 | 1013.5 |
| 20260504015731 | 55 | 0 | 1.7 | 3.5 | 0.00 | 0.00 | 0.00 | 47 | 1013.5 |
| 20260504015232 | 55 | 0 | 1.7 | 3.5 | 0.00 | 0.00 | 0.00 | 46 | 1013.5 |
| 20260504015201 | 55 | 0 | 1.7 | 7.8 | 0.00 | 0.00 | 0.00 | 46 | 1013.5 |
| 20260504014230 | 55 | 0 | 1.7 | 7.8 | 0.00 | 0.00 | 0.00 | 46 | 1013.5 |
| 20260504013733 | 55 | 0 | 1.7 | 7.8 | 0.00 | 0.00 | 0.00 | 45 | 1013.4 |
| 20260504013226 | 55 | 0 | 1.7 | 7.8 | 0.00 | 0.00 | 0.00 | 45 | 1013.4 |
| 20260504013221 | 55 | 0 | 1.7 | 4.3 | 0.00 | 0.00 | 0.00 | 45 | 1013.4 |
| 20260504012207 | 56 | 0 | 1.7 | 4.3 | 0.00 | 0.00 | 0.00 | 44 | 1013.4 |
| 20260504011710 | 56 | 207 | 1.7 | 4.3 | 0.00 | 0.00 | 0.00 | 44 | 1013.3 |
| 20260504011211 | 56 | 0 | 1.7 | 4.3 | 0.00 | 0.00 | 0.00 | 44 | 1013.2 |
| 20260504010707 | 56 | 0 | 1.7 | 4.3 | 0.00 | 0.00 | 0.00 | 43 | 1013.1 |
| 20260504010210 | 56 | 0 | 1.7 | 5.2 | 0.00 | 0.00 | 0.00 | 43 | 1013.1 |
| 20260504005704 | 56 | 0 | 1.7 | 5.2 | 0.00 | 0.00 | 0.00 | 43 | 1013.0 |
| 20260504005208 | 56 | 242 | 1.7 | 4.3 | 0.00 | 0.00 | 0.00 | 43 | 1013.0 |
| 20260504005118 | 56 | 0 | 0.9 | 4.3 | 0.00 | 0.00 | 0.00 | 42 | 1012.9 |
| 20260504004546 | 57 | 0 | 1.7 | 4.3 | 0.00 | 0.00 | 0.00 | 42 | 1012.8 |
| 20260504003704 | 57 | 0 | 1.7 | 4.3 | 0.00 | 0.00 | 0.00 | 42 | 1012.7 |
| 20260504003203 | 57 | 0 | 1.7 | 4.3 | 0.00 | 0.00 | 0.00 | 41 | 1012.7 |
| 20260504003152 | 57 | 0 | 1.7 | 4.3 | 0.00 | 0.00 | 0.00 | 41 | 1012.6 |
| 20260504002210 | 58 | 0 | 1.7 | 4.3 | 0.00 | 0.00 | 0.00 | 40 | 1012.5 |
| 20260504001709 | 58 | 0 | 1.7 | 7.8 | 0.00 | 0.00 | 0.00 | 40 | 1012.5 |
| 20260504001204 | 58 | 0 | 1.7 | 7.8 | 0.00 | 0.00 | 0.00 | 40 | 1012.4 |
| 20260504000710 | 58 | 0 | 2.6 | 7.8 | 0.00 | 0.00 | 0.00 | 40 | 1012.4 |
| 20260504000204 | 58 | 0 | 2.6 | 7.8 | 0.00 | 0.00 | 0.00 | 39 | 1012.4 |
| 20260504000142 | 58 | 0 | 2.6 | 8.7 | 0.00 | 0.00 | 0.00 | 39 | 1012.3 |
| 20260503235207 | 59 | 259 | 2.6 | 8.7 | 0.00 | 0.00 | 0.00 | 39 | 1012.4 |
| 20260503234702 | 59 | 216 | 3.5 | 8.7 | 0.00 | 0.00 | 0.00 | 38 | 1012.2 |
| 20260503234154 | 59 | 279 | 4.3 | 12.2 | 0.00 | 0.00 | 0.00 | 38 | 1012.1 |
| 20260503233920 | 60 | 293 | 3.5 | 12.2 | 0.00 | 0.00 | 0.00 | 37 | 1012.1 |
| 20260503233145 | 60 | 266 | 3.5 | 12.2 | 0.00 | 0.00 | 0.00 | 37 | 1011.9 |
| 20260503233141 | 60 | 271 | 3.5 | 12.2 | 0.00 | 0.00 | 0.00 | 38 | 1012.0 |
| 20260503232149 | 60 | 244 | 3.5 | 9.6 | 0.00 | 0.00 | 0.00 | 36 | 1011.9 |
| 20260503231901 | 60 | 221 | 4.3 | 9.6 | 0.00 | 0.00 | 0.00 | 36 | 1011.9 |
| 20260503231140 | 61 | 267 | 4.3 | 9.6 | 0.00 | 0.00 | 0.00 | 36 | 1012.0 |
| 20260503230644 | 61 | 298 | 3.5 | 9.6 | 0.00 | 0.00 | 0.00 | 35 | 1012.0 |
| 20260503230140 | 61 | 197 | 3.5 | 8.7 | 0.00 | 0.00 | 0.00 | 36 | 1012.0 |
| 20260503230030 | 61 | 269 | 3.5 | 11.3 | 0.00 | 0.00 | 0.00 | 36 | 1012.0 |
| 20260503225624 | 61 | 237 | 3.5 | 11.3 | 0.00 | 0.00 | 0.00 | 36 | 1012.0 |
| 20260503224640 | 61 | 255 | 4.3 | 11.3 | 0.00 | 0.00 | 0.00 | 35 | 1011.9 |
| 20260503224208 | 61 | 298 | 4.3 | 11.3 | 0.00 | 0.00 | 0.00 | 36 | 1011.9 |
| 20260503224011 | 61 | 294 | 3.5 | 11.3 | 0.00 | 0.00 | 0.00 | 35 | 1011.9 |
| 20260503223202 | 61 | 267 | 3.5 | 11.3 | 0.00 | 0.00 | 0.00 | 35 | 1011.9 |
| 20260503222701 | 61 | 298 | 4.3 | 11.3 | 0.00 | 0.00 | 0.00 | 35 | 1011.8 |
| 20260503222509 | 61 | 282 | 4.3 | 11.3 | 0.00 | 0.00 | 0.00 | 35 | 1011.9 |
| 20260503221655 | 61 | 284 | 3.5 | 12.2 | 0.00 | 0.00 | 0.00 | 35 | 1011.9 |
| 20260503221353 | 61 | 311 | 4.3 | 12.2 | 0.00 | 0.00 | 0.00 | 35 | 1012.0 |
| 20260503220149 | 61 | 308 | 5.2 | 13.9 | 0.00 | 0.00 | 0.00 | 34 | 1012.0 |
| 20260503215648 | 61 | 242 | 5.2 | 13.9 | 0.00 | 0.00 | 0.00 | 34 | 1012.0 |
| 20260503215149 | 61 | 279 | 4.3 | 13.9 | 0.00 | 0.00 | 0.00 | 35 | 1012.0 |
| 20260503214646 | 61 | 269 | 5.2 | 11.3 | 0.00 | 0.00 | 0.00 | 35 | 1011.9 |
| 20260503214148 | 61 | 295 | 4.3 | 11.3 | 0.00 | 0.00 | 0.00 | 34 | 1011.8 |
| 20260503213644 | 62 | 302 | 3.5 | 11.3 | 0.00 | 0.00 | 0.00 | 33 | 1011.8 |
| 20260503213359 | 62 | 257 | 4.3 | 10.4 | 0.00 | 0.00 | 0.00 | 34 | 1011.7 |
| 20260503212641 | 61 | 304 | 4.3 | 10.4 | 0.00 | 0.00 | 0.00 | 34 | 1011.6 |
| 20260503212537 | 61 | 262 | 4.3 | 12.2 | 0.00 | 0.00 | 0.00 | 35 | 1011.7 |
| 20260503211633 | 60 | 315 | 5.2 | 12.2 | 0.00 | 0.00 | 0.00 | 34 | 1011.7 |
| 20260503211135 | 60 | 296 | 5.2 | 12.2 | 0.00 | 0.00 | 0.00 | 33 | 1011.7 |
| 20260503210637 | 61 | 288 | 6.1 | 12.2 | 0.00 | 0.00 | 0.00 | 34 | 1011.8 |
| 20260503210142 | 61 | 302 | 5.2 | 12.2 | 0.00 | 0.00 | 0.00 | 34 | 1011.9 |
| 20260503205639 | 61 | 285 | 5.2 | 11.3 | 0.00 | 0.00 | 0.00 | 35 | 1011.8 |
| 20260503205139 | 61 | 305 | 4.3 | 13.0 | 0.00 | 0.00 | 0.00 | 35 | 1011.9 |
| 20260503204635 | 60 | 313 | 5.2 | 13.0 | 0.00 | 0.00 | 0.00 | 34 | 1011.8 |
| 20260503204149 | 60 | 325 | 6.1 | 13.0 | 0.00 | 0.00 | 0.00 | 33 | 1011.9 |
| 20260503203635 | 60 | 199 | 5.2 | 13.0 | 0.00 | 0.00 | 0.00 | 35 | 1011.9 |
| 20260503203404 | 60 | 303 | 4.3 | 12.2 | 0.00 | 0.00 | 0.00 | 34 | 1011.9 |
| 20260503202638 | 59 | 286 | 4.3 | 15.6 | 0.00 | 0.00 | 0.00 | 36 | 1011.9 |
| 20260503202134 | 59 | 304 | 5.2 | 15.6 | 0.00 | 0.00 | 0.00 | 34 | 1012.0 |
| 20260503201932 | 60 | 248 | 6.1 | 15.6 | 0.00 | 0.00 | 0.00 | 33 | 1012.0 |
| 20260503201216 | 60 | 319 | 5.2 | 13.9 | 0.00 | 0.00 | 0.00 | 34 | 1012.0 |
| 20260503201156 | 60 | 257 | 6.1 | 15.6 | 0.00 | 0.00 | 0.00 | 34 | 1012.1 |
| 20260503200138 | 59 | 248 | 5.2 | 11.3 | 0.00 | 0.00 | 0.00 | 37 | 1012.1 |
| 20260503195724 | 59 | 265 | 4.3 | 11.3 | 0.00 | 0.00 | 0.00 | 37 | 1012.1 |
| 20260503195059 | 58 | 317 | 5.2 | 11.3 | 0.00 | 0.00 | 0.00 | 36 | 1012.4 |
| 20260503194130 | 58 | 272 | 4.3 | 11.3 | 0.00 | 0.00 | 0.00 | 38 | 1012.4 |
| 20260503193916 | 58 | 322 | 4.3 | 11.3 | 0.00 | 0.00 | 0.00 | 38 | 1012.5 |
| 20260503193653 | 58 | 322 | 4.3 | 11.3 | 0.00 | 0.00 | 0.00 | 38 | 1012.5 |
| 20260503193148 | 58 | 295 | 5.2 | 19.1 | 0.00 | 0.00 | 0.00 | 37 | 1012.6 |
| 20260503192130 | 58 | 304 | 7.0 | 19.1 | 0.00 | 0.00 | 0.00 | 36 | 1012.7 |
| 20260503192121 | 58 | 325 | 6.1 | 19.1 | 0.00 | 0.00 | 0.00 | 37 | 1012.9 |
| 20260503191131 | 58 | 306 | 5.2 | 13.9 | 0.00 | 0.00 | 0.00 | 38 | 1012.7 |
| 20260503190629 | 57 | 323 | 5.2 | 13.9 | 0.00 | 0.00 | 0.00 | 39 | 1012.9 |
| 20260503190132 | 57 | 294 | 5.2 | 13.9 | 0.00 | 0.00 | 0.00 | 38 | 1013.0 |
| 20260503185629 | 57 | 319 | 6.1 | 13.9 | 0.00 | 0.00 | 0.00 | 37 | 1013.0 |
| 20260503185129 | 58 | 282 | 4.3 | 10.4 | 0.00 | 0.00 | 0.00 | 37 | 1013.0 |
| 20260503184722 | 57 | 321 | 5.2 | 11.3 | 0.00 | 0.00 | 0.00 | 37 | 1013.1 |
| 20260503184700 | 57 | 279 | 5.2 | 11.3 | 0.00 | 0.00 | 0.00 | 37 | 1013.0 |
| 20260503183138 | 57 | 251 | 6.1 | 11.3 | 0.00 | 0.00 | 0.00 | 37 | 1013.1 |
| 20260503182633 | 57 | 344 | 4.3 | 10.4 | 0.00 | 0.00 | 0.00 | 40 | 1013.1 |
| 20260503182129 | 57 | 319 | 4.3 | 14.8 | 0.00 | 0.00 | 0.00 | 39 | 1013.3 |
| 20260503181637 | 57 | 299 | 5.2 | 14.8 | 0.00 | 0.00 | 0.00 | 38 | 1013.3 |
| 20260503181133 | 56 | 315 | 6.1 | 14.8 | 0.00 | 0.00 | 0.00 | 41 | 1013.3 |
| 20260503180630 | 56 | 328 | 7.0 | 14.8 | 0.00 | 0.00 | 0.00 | 38 | 1013.4 |
| 20260503180136 | 56 | 310 | 6.1 | 13.9 | 0.00 | 0.00 | 0.00 | 39 | 1013.4 |
| 20260503175630 | 55 | 340 | 6.1 | 13.0 | 0.00 | 0.00 | 0.00 | 39 | 1013.4 |
| 20260503175216 | 55 | 0 | 6.1 | 13.9 | 0.00 | 0.00 | 0.00 | 40 | 1013.5 |
| 20260503175148 | 55 | 295 | 6.1 | 13.9 | 0.00 | 0.00 | 0.00 | 37 | 1013.4 |
| 20260503174127 | 55 | 355 | 6.1 | 13.0 | 0.00 | 0.00 | 0.00 | 39 | 1013.5 |
| 20260503173140 | 55 | 308 | 5.2 | 13.0 | 0.00 | 0.00 | 0.00 | 39 | 1013.6 |
| 20260503173129 | 55 | 336 | 6.1 | 13.0 | 0.00 | 0.00 | 0.00 | 40 | 1013.5 |
| 20260503172358 | 54 | 320 | 4.3 | 11.3 | 0.00 | 0.00 | 0.00 | 39 | 1013.6 |
| 20260503172134 | 54 | 320 | 4.3 | 11.3 | 0.00 | 0.00 | 0.00 | 39 | 1013.6 |
| 20260503171629 | 54 | 333 | 5.2 | 11.3 | 0.00 | 0.00 | 0.00 | 39 | 1013.6 |
| 20260503171131 | 55 | 313 | 4.3 | 13.9 | 0.00 | 0.00 | 0.00 | 39 | 1013.6 |
| 20260503170629 | 54 | 305 | 4.3 | 13.9 | 0.00 | 0.00 | 0.00 | 43 | 1014.0 |
| 20260503170130 | 53 | 0 | 5.2 | 13.9 | 0.00 | 0.00 | 0.00 | 41 | 1013.9 |
| 20260503150603 | 49 | 340 | 4.3 | 11.3 | 0.00 | 0.00 | 0.00 | 50 | 1014.8 |
| 20260503131106 | 48 | 346 | 5.2 | 12.2 | 0.00 | 0.00 | 0.00 | 56 | 1014.8 |
| 20260503130605 | 47 | 320 | 5.2 | 12.2 | 0.00 | 0.00 | 0.00 | 58 | 1014.7 |
| 20260503130103 | 47 | 316 | 4.3 | 8.7 | 0.00 | 0.00 | 0.00 | 58 | 1014.7 |
| 20260503110556 | 44 | 343 | 2.6 | 5.2 | 0.00 | 0.00 | 0.00 | 65 | 1014.3 |